Location: Bremen
(53.0793°N, 8.8017°E)
Time: 22:13:37
(UTC+02:00)

Vanguard 2 Rocket - Pass Details

Date: 18 April 2024
Orbit: 556 x 3304 km, 32.9° (Epoch: 20 May)

Event Time Altitude Azimuth Distance (km) Brightness Sun altitude
Rises 23:35:07 0° 227° (SW) 6,619 11.2 -21.6°
Reaches altitude 10° 23:39:49 10° 219° (SW) 5,871 10.8 -21.9°
Maximum altitude 23:55:51 35° 163° (SSE) 4,493 9.8 -23.0°
Drops below altitude 10° 00:11:38 10° 107° (ESE) 5,808 10.6 -23.8°
Sets 00:16:13 0° 100° (E) 6,545 11.0 -24.1°
